1
0
mirror of https://github.com/paboyle/Grid.git synced 2026-05-04 17:34:13 +01:00
Commit Graph

213 Commits

Author SHA1 Message Date
fionnoh 8fccda301a Fixed a bug where the guess was always subtracted after the solve and included appropriate weights for the sources in the one case we're looking at now. More work needs to be done to make the 5d/4d source logic less brittle. 2018-06-21 16:36:59 +01:00
fionnoh b5fc5e2030 All to all module update that hit a promising milestone. Commiting for a reference for future changes. 2018-06-20 10:59:07 +01:00
fionnoh a8d4156997 Added a Hadrons module that computes the all-to-all v and w vectors 2018-05-31 17:18:58 +01:00
fionnoh c18074869b Changes to Hadrons SchurRB solver to allow for a subtract_guess boolean to be passed 2018-05-31 17:17:16 +01:00
portelli 72abc34764 Merge pull request #166 from guelpers/feature/hadrons
Feature/hadrons
2018-05-28 11:49:46 +02:00
portelli 255d4992e1 Hadrons: stochastic scalar SU(N) free field fix 2018-05-18 20:49:55 +01:00
portelli a0d399e5ce Hadrons: yet other attempts at EMT NPR 2018-05-18 20:49:26 +01:00
portelli 5e3be47117 Hadrons: scalar SU(N) various fixes 2018-05-14 18:58:39 +01:00
portelli 93771f3099 Hadrons: scalar SU(N) stochastic free field 2018-05-10 22:29:48 +01:00
portelli 3252059daf Hadrons: multi-file support for eigenpacks 2018-05-07 17:25:36 +01:00
portelli dd6b796a01 Hadrons: scalar SU(N) volume factor fix 2018-05-03 16:19:17 +01:00
Vera Guelpers 52a856b4a8 FreeProp module for Hadrons 2018-05-03 12:33:20 +01:00
Vera Guelpers 2700992ef5 Merge remote-tracking branch 'upstream/feature/hadrons' into feature/hadrons 2018-05-03 10:01:52 +01:00
portelli edc28dcfbf Hadrons: scalar SU(N) 2-pt fix 2018-05-01 14:02:31 +01:00
portelli d47484717e Hadrons: scalar SU(N) result handling improvement 2018-04-26 17:32:37 +01:00
portelli cc6eb51e3e Hadrons: macro refactoring for library portability 2018-04-25 16:49:14 +01:00
Vera Guelpers 507009089b Merge remote-tracking branch 'upstream/feature/hadrons' into feature/hadrons 2018-04-25 09:36:39 +01:00
portelli b234784c8e Hadrons: scalar SU(N) takes operator pairs now 2018-04-24 19:52:12 +01:00
portelli c1d0359aaa Hadrons: scalar SU(N) kinetic term saves trace 2018-04-24 19:51:22 +01:00
portelli 047ee4ad0b Hadrons: scalar SU(N) cleanup 2018-04-24 19:50:58 +01:00
portelli a13106da0c Hadrons: scalar SU(N) gradient 2018-04-24 19:50:30 +01:00
portelli 75113e6523 Hadrons: Scalar SU(N) variable name update 2018-04-24 19:49:27 +01:00
portelli 325c73d051 Hadrons: module template update 2018-04-24 19:48:54 +01:00
portelli b25a59e95e Hadrons: mitigation of GCC/Intel compiler bug not generating defaulted destructors 2018-04-24 17:20:25 +01:00
portelli 7c4533797f Hadrons: scalar SU(N) EMT improvement term optional 2018-04-23 22:46:39 +01:00
portelli ce7720e221 Hadrons: copyright update 2018-04-23 17:36:20 +01:00
portelli 853a5528dc Hadrons: template modules compilation optimisation 2018-04-23 17:35:01 +01:00
portelli 4573b34cac Hadrons: scalar SU(N) 2-pt functions with momentum 2018-04-13 18:21:00 +02:00
portelli a16bbecb8a Hadrons: more feedback 2018-04-06 19:38:20 +01:00
portelli 6b7228b3e6 Hadrons: better metadata for eigenpack 2018-04-06 19:29:53 +01:00
portelli 81050535a5 Hadrons: truncate eigenvalues when loading partial eigenpack 2018-04-06 13:48:58 +01:00
portelli 7dcf5c90e3 Hadrons: eigenpack must be referred by solver when used 2018-04-06 13:16:28 +01:00
portelli d3f857b1c9 Hadrons: proper metadata for eigenpacks 2018-04-04 16:36:37 +01:00
portelli 68e6a58f12 Hadrons: several Lanczos fixes and improvements 2018-04-03 17:42:21 +01:00
Guido Cossu f212b0a963 Merge branch 'feature/hadrons' of https://github.com/paboyle/Grid into feature/hadrons 2018-03-19 17:57:13 +00:00
Guido Cossu 62702dbcb8 Fixing bug in the Point sink causing NaNs 2018-03-19 17:56:53 +00:00
portelli cbc73a3fd1 Hadrons: CG guesser fix 2018-03-19 13:11:38 +00:00
portelli d516938707 Hadrons: eigen packs I/O and deflation interface 2018-03-14 14:55:47 +00:00
portelli 2d4d70d3ec Hadrons: LCL fixes 2018-03-13 16:10:36 +00:00
portelli f57afe2079 Hadrons: much cleaner eigenpack implementation, to be tested 2018-03-13 13:51:09 +00:00
Vera Guelpers 8462bbfe63 Gamma input for meson contraction with round brackets 2018-03-12 18:02:12 +00:00
portelli 229977c955 Hadrons: minor memory fix for ShiftProbe module 2018-03-09 21:56:27 +00:00
portelli 70ec2faa98 Hadrons: maximum iteration specified for tests and error if 0 2018-03-09 19:53:55 +00:00
portelli dda6c69d5b Hadrons: scalar SU(N) shift probes 2018-03-05 20:00:29 +00:00
portelli fcac5c0772 Hadrons: scalar SU(N) fixes 2018-03-02 19:20:23 +00:00
portelli 2f4dac3531 Hadrons: legal update 2018-03-02 18:10:58 +00:00
portelli 3ec6890850 Merge branch 'feature/hadrons' of github.com:paboyle/Grid into feature/hadrons 2018-03-02 17:56:08 +00:00
portelli 018801d973 Hadrons: legal update 2018-03-02 17:56:00 +00:00
portelli 1d83521daa Hadrons: scalar SU(N) EMT 2018-03-02 17:55:18 +00:00
portelli d9c435e282 Hadrons: Scalar SU(N) transverse projection module 2018-03-02 17:35:12 +00:00